�������l�o���
Date,Time,MP-1(��Sv/h),MP-2(��Sv/h),MP-3(��Sv/h),MP-4(��Sv/h),MP-5(��Sv/h),MP-6(��Sv/h),MP-7(��Sv/h),MP-8(��Sv/h),����,����(m/s),���J
2020/10/16,00:00,0.654,0.942,0.592,1.141,0.819,0.382,0.663,0.628,�k�k��,7.6,��
2020/10/16,00:10,0.655,0.941,0.592,1.142,0.818,0.382,0.663,0.628,�k�k��,7.4,��
2020/10/16,00:20,0.657,0.939,0.590,1.145,0.820,0.383,0.664,0.628,�k�k��,7.0,��
2020/10/16,00:30,0.656,0.938,0.590,1.143,0.818,0.379,0.663,0.628,�k�k��,7.5,��
2020/10/16,00:40,0.656,0.937,0.592,1.144,0.820,0.381,0.663,0.628,�k�k��,6.1,��
2020/10/16,00:50,0.656,0.938,0.588,1.141,0.819,0.380,0.663,0.626,�k��,7.2,��
2020/10/16,01:00,0.657,0.940,0.592,1.143,0.819,0.380,0.663,0.628,�k��,7.7,��
2020/10/16,01:10,0.655,0.939,0.591,1.144,0.819,0.381,0.662,0.629,�k��,7.3,��
2020/10/16,01:20,0.656,0.940,0.591,1.141,0.819,0.381,0.663,0.625,�k�k��,6.8,��
2020/10/16,01:30,0.656,0.937,0.592,1.142,0.819,0.380,0.664,0.626,�k��,6.9,��
2020/10/16,01:40,0.655,0.939,0.591,1.144,0.817,0.382,0.666,0.628,�k��,7.0,��
2020/10/16,01:50,0.655,0.940,0.592,1.142,0.818,0.381,0.665,0.628,�k��,7.9,��
2020/10/16,02:00,0.656,0.938,0.591,1.143,0.820,0.380,0.664,0.628,�k��,7.8,��
2020/10/16,02:10,0.656,0.938,0.589,1.144,0.820,0.380,0.664,0.627,�k��,8.0,��
2020/10/16,02:20,0.656,0.939,0.591,1.143,0.821,0.380,0.663,0.628,�k��,7.7,��
2020/10/16,02:30,0.656,0.938,0.590,1.143,0.821,0.381,0.664,0.627,�k��,7.5,��
2020/10/16,02:40,0.654,0.939,0.591,1.144,0.819,0.381,0.664,0.627,�k�k��,7.7,��
2020/10/16,02:50,0.655,0.937,0.590,1.144,0.820,0.381,0.664,0.626,�k�k��,7.8,��
2020/10/16,03:00,0.656,0.940,0.589,1.142,0.819,0.382,0.663,0.627,�k�k��,6.8,��
2020/10/16,03:10,0.656,0.940,0.590,1.143,0.819,0.380,0.663,0.629,�k�k��,7.8,��
2020/10/16,03:20,0.654,0.938,0.589,1.145,0.820,0.381,0.662,0.627,�k�k��,8.6,��
2020/10/16,03:30,0.657,0.938,0.591,1.145,0.818,0.381,0.664,0.627,�k�k��,8.2,��
2020/10/16,03:40,0.657,0.940,0.590,1.144,0.820,0.381,0.663,0.627,�k��,8.1,��
2020/10/16,03:50,0.658,0.940,0.592,1.147,0.820,0.381,0.663,0.628,�k��,7.7,��
2020/10/16,04:00,0.656,0.937,0.590,1.145,0.818,0.379,0.664,0.628,�k��,8.2,��
2020/10/16,04:10,0.655,0.941,0.592,1.144,0.820,0.382,0.663,0.627,�k�k��,8.2,��
2020/10/16,04:20,0.657,0.937,0.590,1.145,0.819,0.382,0.664,0.627,�k�k��,8.5,��
2020/10/16,04:30,0.658,0.938,0.592,1.145,0.819,0.382,0.662,0.627,�k��,8.4,��
2020/10/16,04:40,0.656,0.942,0.592,1.144,0.818,0.381,0.662,0.628,�k��,7.2,��
2020/10/16,04:50,0.658,0.942,0.592,1.145,0.820,0.381,0.663,0.627,�k�k��,8.5,��
2020/10/16,05:00,0.658,0.938,0.591,1.147,0.818,0.381,0.662,0.629,�k�k��,7.4,��
2020/10/16,05:10,0.657,0.941,0.591,1.143,0.819,0.381,0.661,0.629,�k�k��,7.1,��
2020/10/16,05:20,0.658,0.942,0.590,1.145,0.818,0.382,0.662,0.628,�k��,7.3,��
2020/10/16,05:30,0.657,0.938,0.591,1.144,0.820,0.381,0.662,0.628,�k��,7.7,��
2020/10/16,05:40,0.656,0.940,0.590,1.147,0.822,0.381,0.662,0.627,�k��,6.8,��
2020/10/16,05:50,0.657,0.940,0.590,1.146,0.818,0.381,0.663,0.628,�k��,6.1,��
2020/10/16,06:00,0.655,0.940,0.590,1.147,0.819,0.381,0.663,0.627,�k�k��,6.4,��
2020/10/16,06:10,0.656,0.939,0.591,1.146,0.819,0.381,0.663,0.629,�k�k��,7.0,��
2020/10/16,06:20,0.658,0.938,0.591,1.144,0.818,0.381,0.663,0.629,�k�k��,7.5,��
2020/10/16,06:30,0.657,0.942,0.591,1.145,0.821,0.380,0.662,0.629,�k�k��,7.1,��
2020/10/16,06:40,0.657,0.939,0.592,1.146,0.819,0.381,0.663,0.628,�k�k��,7.0,��
2020/10/16,06:50,0.657,0.940,0.591,1.144,0.820,0.380,0.662,0.628,�k�k��,5.6,��
2020/10/16,07:00,0.657,0.938,0.594,1.145,0.820,0.380,0.664,0.628,�k�k��,6.5,��
2020/10/16,07:10,0.658,0.941,0.594,1.144,0.821,0.381,0.662,0.628,�k��,6.3,��
2020/10/16,07:20,0.658,0.938,0.593,1.146,0.822,0.381,0.662,0.629,�k�k��,6.6,��
2020/10/16,07:30,0.657,0.941,0.593,1.146,0.819,0.381,0.664,0.628,�k��,7.4,��
2020/10/16,07:40,0.657,0.940,0.583,1.144,0.819,0.380,0.662,0.628,�k��,6.7,��
2020/10/16,07:50,0.657,0.941,0.583,1.146,0.821,0.381,0.662,0.627,�k�k��,6.5,��
2020/10/16,08:00,0.657,0.938,0.588,1.146,0.819,0.382,0.662,0.627,�k��,7.5,��
2020/10/16,08:10,0.657,0.939,0.589,1.146,0.822,0.380,0.661,0.628,�k�k��,6.8,��
2020/10/16,08:20,0.658,0.938,0.590,1.145,0.822,0.381,0.662,0.627,�k�k��,6.7,��
2020/10/16,08:30,0.659,0.937,0.589,1.144,0.820,0.381,0.663,0.628,�k�k��,6.9,��
2020/10/16,08:40,0.658,0.939,0.588,1.145,0.821,0.382,0.663,0.628,�k�k��,7.0,��
2020/10/16,08:50,0.658,0.936,0.591,1.146,0.821,0.381,0.661,0.628,�k�k��,6.0,��
2020/10/16,09:00,0.657,0.936,0.589,1.144,0.818,0.381,0.663,0.629,�k�k��,6.8,��
2020/10/16,09:10,0.657,0.940,0.589,1.146,0.820,0.380,0.661,0.628,�k�k��,7.2,��
2020/10/16,09:20,0.658,0.935,0.592,1.148,0.820,0.381,0.664,0.629,�k�k��,6.6,��
2020/10/16,09:30,0.660,0.936,0.590,1.148,0.821,0.381,0.663,0.628,�k�k��,7.0,��
2020/10/16,09:40,0.658,0.937,0.589,1.146,0.822,0.381,0.662,0.630,�k�k��,7.0,��
2020/10/16,09:50,0.659,0.935,0.592,1.146,0.821,0.381,0.663,0.629,�k�k��,6.0,��
2020/10/16,10:00,0.658,0.938,0.591,1.144,0.820,0.380,0.660,0.628,�k�k��,5.6,��
2020/10/16,10:10,0.658,0.939,0.593,1.146,0.820,0.382,0.662,0.630,�k�k��,5.1,��
2020/10/16,10:20,0.660,0.943,0.592,1.148,0.823,0.381,0.661,0.630,�k�k��,5.9,��
2020/10/16,10:30,0.660,0.940,0.592,1.147,0.821,0.382,0.661,0.629,�k,7.0,��
2020/10/16,10:40,0.660,0.940,0.593,1.147,0.821,0.382,0.663,0.628,�k,7.7,��
2020/10/16,10:50,0.658,0.938,0.591,1.147,0.823,0.381,0.662,0.627,�k,7.0,��
2020/10/16,11:00,0.657,0.937,0.592,1.149,0.821,0.380,0.663,0.628,�k,6.8,��
2020/10/16,11:10,0.658,0.939,0.592,1.147,0.820,0.380,0.664,0.630,�k,6.1,��
2020/10/16,11:20,0.657,0.935,0.593,1.147,0.821,0.380,0.662,0.630,�k,6.5,��
2020/10/16,11:30,0.658,0.936,0.589,1.148,0.821,0.379,0.663,0.628,�k�k��,7.3,��
2020/10/16,11:40,0.658,0.938,0.591,1.147,0.819,0.381,0.664,0.628,�k,6.8,��
2020/10/16,11:50,0.657,0.939,0.591,1.146,0.821,0.381,0.664,0.627,�k,6.6,��
2020/10/16,12:00,0.657,0.941,0.591,1.149,0.821,0.381,0.664,0.629,�k,5.7,��
2020/10/16,12:10,0.657,0.940,0.592,1.150,0.821,0.381,0.666,0.627,�k,6.0,��
2020/10/16,12:20,0.658,0.941,0.594,1.148,0.821,0.382,0.663,0.627,�k,5.5,��
2020/10/16,12:30,0.657,0.942,0.593,1.147,0.823,0.380,0.664,0.625,�k,5.6,��
2020/10/16,12:40,0.657,0.940,0.593,1.147,0.820,0.381,0.665,0.626,�k,5.4,��
2020/10/16,12:50,0.657,0.940,0.594,1.149,0.822,0.381,0.664,0.625,�k,5.6,��
2020/10/16,13:00,0.658,0.939,0.594,1.151,0.824,0.381,0.665,0.628,�k�k��,5.5,��
2020/10/16,13:10,0.659,0.940,0.595,1.150,0.822,0.382,0.664,0.626,�k,5.3,��
2020/10/16,13:20,0.657,0.940,0.592,1.148,0.821,0.381,0.662,0.627,�k,4.3,��
2020/10/16,13:30,0.658,0.939,0.594,1.150,0.823,0.380,0.666,0.627,�k,4.9,��
2020/10/16,13:40,0.659,0.938,0.593,1.149,0.821,0.381,0.665,0.626,�k,4.7,��
2020/10/16,13:50,0.660,0.937,0.594,1.151,0.823,0.380,0.664,0.625,�k,4.1,��
2020/10/16,14:00,0.658,0.940,0.595,1.151,0.823,0.380,0.665,0.627,�k,4.8,��
2020/10/16,14:10,0.659,0.939,0.593,1.150,0.823,0.380,0.664,0.628,�k,5.4,��
2020/10/16,14:20,0.659,0.940,0.594,1.152,0.824,0.380,0.664,0.628,�k,5.0,��
2020/10/16,14:30,0.659,0.941,0.595,1.151,0.821,0.380,0.664,0.627,�k,4.1,��
2020/10/16,14:40,0.657,0.938,0.595,1.151,0.822,0.380,0.662,0.628,�k�k��,4.9,��
2020/10/16,14:50,0.656,0.939,0.594,1.150,0.823,0.380,0.665,0.627,�k,4.3,��
2020/10/16,15:00,0.658,0.938,0.594,1.149,0.822,0.381,0.664,0.625,�k�k��,4.5,��
2020/10/16,15:10,0.659,0.942,0.597,1.149,0.823,0.381,0.664,0.627,�k,4.3,��
2020/10/16,15:20,0.659,0.942,0.597,1.151,0.824,0.380,0.663,0.627,�k�k��,4.2,��
2020/10/16,15:30,0.659,0.942,0.596,1.149,0.822,0.381,0.664,0.628,�k,4.1,��
2020/10/16,15:40,0.660,0.944,0.596,1.152,0.822,0.381,0.665,0.627,�k�k��,4.5,��
2020/10/16,15:50,0.661,0.946,0.598,1.153,0.824,0.383,0.663,0.629,�k�k��,4.7,��
2020/10/16,16:00,0.660,0.946,0.596,1.153,0.825,0.382,0.662,0.629,�k,4.3,��
2020/10/16,16:10,0.662,0.947,0.594,1.151,0.826,0.383,0.663,0.630,�k�k��,3.8,��
2020/10/16,16:20,0.662,0.946,0.597,1.151,0.824,0.383,0.662,0.630,�k�k��,3.3,��
2020/10/16,16:30,0.662,0.947,0.596,1.150,0.825,0.384,0.665,0.629,�k�k��,3.6,��
2020/10/16,16:40,0.660,0.946,0.594,1.150,0.828,0.382,0.663,0.629,�k�k��,3.9,��
2020/10/16,16:50,0.659,0.945,0.597,1.150,0.825,0.383,0.663,0.631,�k�k��,4.5,��
2020/10/16,17:00,0.659,0.946,0.597,1.152,0.825,0.382,0.664,0.631,�k�k��,4.6,��
2020/10/16,17:10,0.659,0.945,0.596,1.151,0.827,0.383,0.663,0.631,�k��,4.3,��
2020/10/16,17:20,0.659,0.946,0.596,1.151,0.825,0.383,0.665,0.629,�k�k��,5.3,��
2020/10/16,17:30,0.660,0.947,0.595,1.150,0.826,0.385,0.665,0.630,�k��,4.8,��
2020/10/16,17:40,0.659,0.948,0.596,1.152,0.825,0.382,0.664,0.628,�k��,3.3,��
2020/10/16,17:50,0.661,0.950,0.595,1.150,0.825,0.382,0.665,0.632,�k��,3.5,��
2020/10/16,18:00,0.661,0.948,0.595,1.152,0.825,0.384,0.665,0.630,�k��,3.6,��
2020/10/16,18:10,0.659,0.945,0.596,1.150,0.827,0.381,0.665,0.630,�k��,4.2,��
2020/10/16,18:20,0.661,0.947,0.597,1.151,0.825,0.383,0.665,0.630,�k�k��,3.8,��
2020/10/16,18:30,0.659,0.946,0.596,1.150,0.827,0.382,0.666,0.629,�k�k��,4.8,��
2020/10/16,18:40,0.661,0.947,0.595,1.151,0.826,0.383,0.665,0.631,�k��,4.9,��
2020/10/16,18:50,0.660,0.946,0.595,1.151,0.826,0.383,0.666,0.631,�k�k��,4.7,��
2020/10/16,19:00,0.660,0.946,0.597,1.151,0.825,0.383,0.665,0.630,�k�k��,4.8,��
2020/10/16,19:10,0.661,0.946,0.596,1.150,0.828,0.384,0.666,0.629,�k�k��,4.9,��
2020/10/16,19:20,0.661,0.946,0.596,1.151,0.826,0.382,0.665,0.629,�k��,4.7,��
2020/10/16,19:30,0.660,0.946,0.596,1.151,0.825,0.383,0.665,0.630,�k��,4.2,��
2020/10/16,19:40,0.661,0.947,0.598,1.151,0.826,0.381,0.663,0.629,�k��,4.6,��
2020/10/16,19:50,0.659,0.946,0.596,1.151,0.826,0.382,0.665,0.630,�k��,3.4,��
2020/10/16,20:00,0.661,0.945,0.595,1.152,0.825,0.383,0.665,0.630,�k��,3.5,��
2020/10/16,20:10,0.660,0.947,0.596,1.150,0.825,0.384,0.665,0.631,�k��,3.6,��
2020/10/16,20:20,0.659,0.948,0.595,1.153,0.826,0.384,0.666,0.631,�k��,3.8,��
2020/10/16,20:30,0.660,0.948,0.595,1.151,0.826,0.382,0.663,0.630,�k��,3.8,��
2020/10/16,20:40,0.662,0.946,0.596,1.152,0.826,0.383,0.665,0.629,�k��,3.6,��
2020/10/16,20:50,0.661,0.945,0.595,1.153,0.824,0.385,0.665,0.629,�k��,3.6,��
2020/10/16,21:00,0.661,0.946,0.595,1.153,0.826,0.383,0.666,0.630,�k��,4.6,��
2020/10/16,21:10,0.660,0.946,0.596,1.153,0.823,0.384,0.664,0.630,�k��,2.9,��
2020/10/16,21:20,0.660,0.948,0.596,1.152,0.826,0.383,0.664,0.631,�k��,3.3,��
2020/10/16,21:30,0.661,0.947,0.596,1.154,0.826,0.382,0.665,0.629,�k��,3.7,��
2020/10/16,21:40,0.660,0.946,0.596,1.154,0.825,0.382,0.664,0.631,�k��,3.6,��
2020/10/16,21:50,0.661,0.946,0.595,1.151,0.825,0.383,0.664,0.630,�k��,3.6,��
2020/10/16,22:00,0.659,0.945,0.596,1.152,0.826,0.382,0.665,0.628,�k��,3.8,��
2020/10/16,22:10,0.660,0.946,0.596,1.154,0.822,0.383,0.664,0.631,�k��,3.8,��
2020/10/16,22:20,0.662,0.947,0.597,1.154,0.825,0.382,0.665,0.629,�k��,4.1,��
2020/10/16,22:30,0.660,0.945,0.596,1.154,0.824,0.382,0.666,0.630,�k��,3.4,��
2020/10/16,22:40,0.663,0.946,0.595,1.153,0.827,0.382,0.664,0.629,�k��,4.3,��
2020/10/16,22:50,0.660,0.947,0.595,1.154,0.828,0.382,0.665,0.630,�k��,4.7,��
2020/10/16,23:00,0.662,0.947,0.593,1.153,0.827,0.384,0.665,0.629,�k��,4.7,��
2020/10/16,23:10,0.660,0.947,0.594,1.155,0.826,0.383,0.665,0.630,�k��,4.6,��
2020/10/16,23:20,0.661,0.946,0.596,1.152,0.827,0.382,0.665,0.630,�k��,5.3,��
2020/10/16,23:30,0.661,0.946,0.595,1.155,0.826,0.381,0.665,0.630,�k��,5.3,��
2020/10/16,23:40,0.661,0.945,0.596,1.154,0.824,0.383,0.665,0.630,�k��,5.2,��
2020/10/16,23:50,0.661,0.946,0.596,1.154,0.827,0.384,0.665,0.630,�k��,5.7,��
